Location: Newark
(48.9320°N, 2.2664°E)
Time: 02:37:16
(UTC+00:00)

ISS - Visible Passes

Search period start: 23 January 2020 00:00
Search period end: 02 February 2020 00:00
Orbit: 415 x 421 km, 51.6° (Epoch: 23 January)

Date Brightness Start Highest point End Pass type
(mag) Time Alt. Az. Time Alt. Az. Time Alt. Az.
23 Jan -3.1 18:11:34 10° SW 18:14:45 41° SSE 18:15:23 37° ESE visible
23 Jan -0.3 19:48:08 10° W 19:48:19 11° W 19:48:19 11° W visible
24 Jan -2.4 17:23:54 10° SSW 17:26:50 28° SE 17:29:26 12° E visible
24 Jan -2.5 19:00:02 10° WSW 19:02:22 41° W 19:02:22 41° W visible
25 Jan -3.8 18:12:00 10° WSW 18:15:22 82° SSE 18:16:22 42° ENE visible
25 Jan -0.3 19:49:00 10° W 19:49:18 12° W 19:49:18 12° W visible
26 Jan -3.5 17:24:01 10° SW 17:27:21 59° SSE 17:30:20 12° ENE visible
26 Jan -2.5 19:00:51 10° W 19:03:16 39° WNW 19:03:16 39° WNW visible
27 Jan -3.6 18:12:43 10° W 18:16:04 63° NNW 18:17:11 37° NE visible
27 Jan -0.4 19:49:46 10° WNW 19:50:07 12° WNW 19:50:07 12° WNW visible
28 Jan -3.7 17:24:35 10° WSW 17:27:57 78° NNW 17:31:05 12° ENE visible
28 Jan -2.4 19:01:39 10° WNW 19:04:01 37° NW 19:04:01 37° NW visible
29 Jan -3.3 18:13:29 10° W 18:16:48 51° N 18:17:54 34° NE visible
29 Jan -0.4 19:50:25 10° WNW 19:50:50 13° WNW 19:50:50 13° WNW visible
30 Jan -3.4 17:25:18 10° W 17:28:38 55° N 17:31:48 11° ENE visible
30 Jan -2.6 19:02:19 10° WNW 19:04:43 41° NW 19:04:43 41° NW visible
31 Jan -3.5 18:14:11 10° WNW 18:17:30 54° N 18:18:38 35° ENE visible
31 Jan -0.5 19:51:01 10° WNW 19:51:34 14° WNW 19:51:34 14° WNW visible
01 Feb -3.4 17:26:00 10° WNW 17:29:19 51° N 17:32:35 10° E visible
01 Feb -3.0 19:02:53 10° WNW 19:05:31 51° WNW 19:05:31 51° WNW visible
